Weather in Arsenev

Russia / Primorsky Krai     44°09′43″N   133°16′11″E
temp.,
°C
wind,
m/s
gust,
m/s
humid.,
%
clouds,
%
prec.,
mm/h
press.,
hPa
HPBL,
m
17 october, sun
sun1701:00−2wnw5105493 0.0 10211395
04:00−3wnw5105162 0.1 10211225
07:00−3w5104895 0.0 10231325
10:00−1wnw693896 0.0 10231707
13:00+2wnw693163 0.0 10221992
16:00+3nw692846 0.0 10212147
19:00−1w11434 0.0 102310
22:00−3sw22490 0.0 102422
18 october, mon
mon1801:00−3sw22475 0.0 102428
04:00−4s114738 0.0 102418
07:00−4se114957 0.0 102413
10:00+2s133516 0.0 1024322
13:00+8wsw3834100 0.0 10211923
16:00+8w2451100 0.0 1019454
19:00+3ne2277100 0.2 102031
22:00+1ne2286100 0.2 102126
19 october, tue
tue1901:00+1ne1188100 0.0 102140
04:00+1n1398100 0.1 1022252
07:000n139193 0.3 1023207
10:00+2nne366299 0.3 1024782
13:00+4n45343 0.0 10231342
16:00+4n453294 0.0 10221508
19:00−1nnw2250100 0.0 102333
22:00−3n12542 0.0 102323
20 october, wed
wed2001:00−3wsw01551 0.0 102311
04:00−3nne11530 0.0 102116
07:00−4s11550 0.0 102211
10:00+2wnw134124 0.0 1022581
13:00+6nnw46365 0.0 10191678
16:00+5nnw57415 0.0 10181537
19:000w11625 0.0 101910
22:00−1w116717 0.0 101910
21 october, thu
thu2101:00−2sw11725 0.0 101915
04:00−2sw11755 0.0 102014
07:00−2sw11795 0.0 102016
10:00+3w23585 0.0 1021527
13:00+7nw34435 0.0 10201407
16:00+7nw45445 0.0 10191288
19:00+1w11680 0.0 102110
22:00−1ssw11755 0.0 102110